TimeEDT,TemperatureF,Dew PointF,Humidity,Sea Level PressureIn,VisibilityMPH,Wind Direction,Wind SpeedMPH,Gust SpeedMPH,PrecipitationIn,Events,Conditions,WindDirDegrees,DateUTC
12:53 AM,78.1,68.0,71,29.99,10.0,East,5.8,-,N/A,,Clear,80,2013-04-23 04:53:00
1:53 AM,77.0,69.1,76,29.99,10.0,ENE,4.6,-,N/A,,Partly Cloudy,70,2013-04-23 05:53:00
2:22 AM,78.8,69.8,74,29.98,10.0,NE,5.8,-,N/A,,Mostly Cloudy,50,2013-04-23 06:22:00
2:53 AM,78.1,66.9,68,29.97,10.0,NE,10.4,-,N/A,,Partly Cloudy,40,2013-04-23 06:53:00
3:19 AM,78.8,69.8,74,29.96,10.0,NNE,11.5,-,N/A,,Mostly Cloudy,30,2013-04-23 07:19:00
3:29 AM,77.0,69.8,78,29.96,10.0,NNE,10.4,-,N/A,,Mostly Cloudy,30,2013-04-23 07:29:00
3:36 AM,77.0,68.0,74,29.96,10.0,NNE,10.4,-,N/A,,Mostly Cloudy,30,2013-04-23 07:36:00
3:44 AM,77.0,66.2,69,29.96,10.0,NE,11.5,-,N/A,,Scattered Clouds,40,2013-04-23 07:44:00
3:53 AM,77.0,66.9,71,29.96,10.0,NE,10.4,-,N/A,,Partly Cloudy,50,2013-04-23 07:53:00
4:53 AM,77.0,66.9,71,29.95,10.0,NE,11.5,-,N/A,,Clear,40,2013-04-23 08:53:00
6:53 AM,75.9,66.9,74,29.98,10.0,NNE,12.7,-,N/A,,Clear,30,2013-04-23 10:53:00
7:35 AM,77.0,66.2,69,29.99,10.0,NE,13.8,-,N/A,,Partly Cloudy,40,2013-04-23 11:35:00
7:53 AM,77.0,66.9,71,29.99,10.0,NNE,15.0,-,N/A,,Clear,30,2013-04-23 11:53:00
8:53 AM,79.0,66.9,66,30.01,10.0,NE,13.8,-,N/A,,Clear,40,2013-04-23 12:53:00
9:53 AM,80.1,68.0,67,30.02,10.0,NE,13.8,-,N/A,,Clear,50,2013-04-23 13:53:00
10:53 AM,82.0,66.9,60,30.04,10.0,NE,15.0,-,N/A,,Clear,50,2013-04-23 14:53:00
11:53 AM,84.0,68.0,58,30.05,10.0,NE,12.7,-,N/A,,Clear,50,2013-04-23 15:53:00
12:53 PM,86.0,66.9,53,30.04,10.0,NE,12.7,-,N/A,,Clear,50,2013-04-23 16:53:00
1:53 PM,87.1,64.9,48,30.02,10.0,NE,10.4,-,N/A,,Clear,50,2013-04-23 17:53:00
2:53 PM,87.1,64.9,48,30.01,10.0,NE,10.4,-,N/A,,Clear,50,2013-04-23 18:53:00
3:53 PM,84.9,68.0,57,29.99,10.0,East,10.4,-,N/A,,Mostly Cloudy,100,2013-04-23 19:53:00
4:12 PM,86.0,68.0,55,29.98,10.0,East,10.4,17.3,N/A,,Overcast,90,2013-04-23 20:12:00
4:25 PM,84.2,66.2,55,29.98,10.0,East,10.4,-,N/A,,Mostly Cloudy,90,2013-04-23 20:25:00
4:46 PM,82.4,66.2,58,29.98,10.0,East,12.7,-,0.00,,Mostly Cloudy,90,2013-04-23 20:46:00
4:53 PM,84.0,66.9,56,29.98,10.0,East,10.4,18.4,0.00,,Mostly Cloudy,90,2013-04-23 20:53:00
5:53 PM,84.0,66.0,55,29.98,10.0,East,13.8,20.7,N/A,,Mostly Cloudy,90,2013-04-23 21:53:00
6:53 PM,84.0,64.0,51,29.99,10.0,ENE,11.5,20.7,N/A,,Partly Cloudy,70,2013-04-23 22:53:00
7:53 PM,82.0,64.0,54,30.00,10.0,ENE,17.3,24.2,N/A,,Clear,60,2013-04-23 23:53:00
8:53 PM,81.0,64.0,56,30.02,10.0,ENE,17.3,24.2,N/A,,Partly Cloudy,70,2013-04-24 00:53:00
9:53 PM,81.0,63.0,54,30.04,10.0,NE,17.3,26.5,N/A,,Scattered Clouds,50,2013-04-24 01:53:00
10:53 PM,80.1,62.1,54,30.06,10.0,ENE,16.1,25.3,N/A,,Mostly Cloudy,60,2013-04-24 02:53:00
11:53 PM,79.0,62.1,56,30.06,10.0,ENE,17.3,26.5,N/A,,Partly Cloudy,70,2013-04-24 03:53:00